Location: Paddlesworth
(51.1000°N, 1.1333°E)
Time: 04:40:46
(UTC+00:00)

USA 305 - Pass Details

Date: 11 May 2021
Orbit: 567 x 573 km, 54.0° (Epoch: 07 May)

Event Time Altitude Azimuth Distance (km) Brightness Sun altitude
Rises 20:20:18 0° 290° (WNW) 2,773 8.0 -6.8°
Reaches altitude 10° 20:22:33 10° 291° (WNW) 1,875 6.9 -7.1°
Maximum altitude 20:26:49 85° 18° (NNE) 579 2.9 -7.6°
Drops below altitude 10° 20:31:06 10° 110° (ESE) 1,873 5.0 -8.1°
Enters shadow 20:31:23 - 110° (ESE) 1,985 5.1 -8.1°
